sat.trackr.live / text

‹ back to catalog

STARLINK-30498

NORAD 57971 · 2023-151H

PAYLOAD ACTIVE UNKNOWN

§ Identity

Operator
Country
US
Launch date
2023-09-30
Launch site
AFETR
Launch vehicle
Mass (kg)
RCS (m²)

Purposes: comms

External: N2YO · Heavens-Above · Gunter

§ Orbital elements

Epoch: 2026-09-20T20:20:20.961312Z

Period
94.27 min
Inclination
43.0038°
Eccentricity
0.0001014
Mean motion
15.27570761 rev/d
Perigee alt
482.4 km
Apogee alt
483.8 km
Semi-major
6,861.2 km
B*
8.9155e-5
RAAN
313.8112°
Arg perigee
262.3368°
Mean anomaly
97.7369°
Rev number
16,561

§ Raw data

STARLINK-304981 57971U 23151H   26263.84746483  .00002191  00000+0  89155-4 0  99982 57971  43.0038 313.8112 0001014 262.3368  97.7369 15.27570761165615

JSON: /api/v1/satellites/57971 · /tle

For live sub-satellite position, see the globe view (requires WebGL).

§ Visibility from observer

Set your observer location to see the next 7 days of passes ≥ 10°. The values pass through the URL so the page stays shareable.

No JS? Fill the form by hand. The geolocation button needs JavaScript.